[[{"header":{"parameterUnit":"m.s-1","parameterCategory":1,"la1":30.2991,"la2":30.254,"lo1":-89.0895,"lo2":-89.0444,"dy":0.0017,"dx":0.0017,"nx":28,"ny":28,"refTime":"2024-10-11T21:00:00:Z","depth":0,"parameterNumber":2,"parameterNumberName":"U-component_of_WINDS"},"data":[0,0,0,0,0,0,0,0,0,0,0,0,0,0,0,0,0,0,0,0,0,0,0,0,0,0,0,0,0,0,0,0,0,0,0,0,0,0,0,0,0,0,0,0,0,0,0,0,0,0,0,0,0,0,0,0,0,0,-0.9661,-0.9661,0,-0.9622,-0.9621,-0.9621,-0.956,-0.9559,-0.9558,-0.9557,-0.9517,-0.9517,-0.9517,0,0,0,0,0,0,0,0,0,0,0,0,0,-0.9687,-0.9687,-0.9662,-0.9661,-0.9661,-0.9622,-0.9621,-0.9621,-0.956,-0.9559,-0.9558,-0.9557,-0.9517,-0.9517,-0.9517,0,0,0,0,0,0,0,0,0,0,0,0,0,-0.9665,-0.9687,-0.9662,-0.9626,-0.9622,-0.9622,-0.9621,-0.962,-0.9561,-0.9559,-0.9558,-0.9556,-0.9517,-0.9517,-0.9517,-0.9548,0,0,-0.9516,-0.9516,0,0,0,0,0,0,0,0,-0.9666,-0.9664,-0.9632,-0.9628,-0.9624,-0.9594,-0.9615,-0.9596,-0.9561,-0.9584,-0.9557,-0.9555,-0.9544,-0.9541,-0.9537,-0.9546,-0.9544,-0.9516,-0.9516,-0.9516,-0.9516,0,0,0,0,0,0,0,-0.9668,-0.9665,-0.9646,-0.9631,-0.9627,-0.9612,-0.9607,-0.9611,-0.9574,-0.9582,-0.9578,-0.9574,-0.9542,-0.9538,-0.9536,-0.9544,-0.9516,-0.9516,-0.9516,-0.9516,-0.9579,-0.958,0,0,0,0,0,0,-0.9674,-0.9667,-0.9647,-0.9644,-0.9642,-0.9613,-0.9608,-0.9606,-0.9573,-0.9567,-0.9575,-0.9571,-0.9539,-0.9536,-0.9534,-0.9571,-0.9516,-0.9516,-0.9516,-0.9577,-0.9579,-0.9581,0,0,0,0,0,0,-0.9675,-0.9673,-0.9649,-0.9655,-0.965,-0.9614,-0.9613,-0.9606,-0.9602,-0.9568,-0.9561,-0.9578,-0.9537,-0.9535,-0.9546,-0.9568,-0.9516,-0.9516,-0.9575,-0.9577,-0.958,-0.9642,0,0,0,0,0,0,-0.9676,-0.9674,-0.9685,-0.9655,-0.965,-0.966,-0.9614,-0.9606,-0.9602,-0.9596,-0.9569,-0.9563,-0.9536,-0.9546,-0.9545,-0.9567,-0.9516,-0.9573,-0.9576,-0.9579,-0.9638,-0.9647,-0.9654,0,0,0,0,0,-0.9677,-0.9704,-0.9686,-0.9684,-0.9663,-0.9661,-0.9659,-0.9627,-0.9604,-0.9615,-0.9594,-0.9564,-0.9566,-0.9548,-0.9546,-0.9569,-0.9571,-0.9575,-0.9579,-0.9635,-0.9645,-0.9654,0,0,0,0,0,0,-0.9737,-0.9699,-0.9679,-0.9696,-0.9683,-0.9651,-0.9664,-0.9639,-0.9631,-0.9626,-0.9587,-0.9582,-0.9598,-0.9584,-0.9565,-0.9598,-0.9564,-0.9568,-0.9607,-0.9617,-0.9625,-0.9628,-0.9516,0,0,0,0,0,-0.9752,-0.9753,-0.972,-0.9739,-0.9733,-0.97,-0.9698,-0.9675,-0.9659,-0.9653,-0.9632,-0.9619,-0.9616,-0.9616,-0.9611,-0.9636,-0.963,-0.9651,-0.9659,-0.9666,-0.967,-0.9684,-0.9693,-0.9594,-0.9594,-0.9594,0,0,-0.9783,-0.9763,-0.9766,-0.975,-0.9737,-0.974,-0.9696,-0.97,-0.9702,-0.9654,-0.9663,-0.9648,-0.963,-0.9649,-0.9656,-0.9638,-0.9696,-0.9671,-0.9676,-0.9676,-0.9689,-0.9698,-0.9706,-0.9596,-0.9596,-0.9595,0,0,-0.9842,-0.9826,-0.984,-0.9828,-0.9809,-0.9787,-0.9791,-0.9764,-0.9752,-0.9761,-0.9725,-0.9728,-0.9724,-0.9713,-0.9707,-0.9765,-0.9738,-0.9764,-0.9806,-0.9821,-0.9828,-0.9835,-0.9857,-0.9865,-0.9768,-0.9768,-0.9768,0,-0.9883,-0.9885,-0.9851,-0.9859,-0.9854,-0.981,-0.9826,-0.9816,-0.9796,-0.9794,-0.9774,-0.977,-0.9755,-0.9771,-0.9786,-0.9782,-0.9786,-0.9767,-0.983,-0.9836,-0.9842,-0.9863,-0.9871,-0.9772,-0.9771,-0.9771,-0.9771,0,-0.9938,-0.9941,-0.9955,-0.9938,-0.9934,-0.9946,-0.9914,-0.9915,-0.9893,-0.9874,-0.9884,-0.9865,-0.9857,-0.9859,-0.9837,-0.9873,-0.9863,-0.9837,-0.9802,-0.9856,-0.9875,-0.9882,-0.9777,-0.9776,-0.9775,-0.9774,0,0,-1.0032,-0.9997,-1.0003,-0.9996,-0.9972,-0.9974,-0.9984,-0.9976,-0.9979,-0.9967,-0.9976,-0.9975,-0.9951,-0.9945,-0.9921,-0.9934,-0.9983,-0.9906,-0.9906,-0.9923,-1.0023,-1.0044,-1.0053,-0.9964,-0.9966,-0.9967,-1.0025,0,-1.0087,-1.0102,-1.0072,-1.0095,-1.0098,-1.0058,-1.0067,-1.0054,-1.0037,-1.0038,-1.0018,-1.0019,-0.9987,-0.9984,-0.9994,-0.9974,-1.0002,-0.997,-0.9973,-0.9974,-0.998,-1.0063,-1.0084,-1.014,-1.0032,-1.0034,-1.0034,0,-1.0152,-1.0145,-1.0168,-1.0145,-1.0145,-1.0154,-1.0146,-1.0146,-1.0132,-1.0118,-1.0113,-1.0085,-1.0095,-1.0061,-1.0075,-1.0053,-1.0053,-1.0044,-1.0046,-1.0045,-1.0008,-1.0066,-1.0157,-1.0166,-1.0045,-1.0044,-1.0044,0,-1.022,-1.0216,-1.023,-1.0224,-1.0197,-1.0205,-1.0194,-1.0178,-1.0176,-1.0169,-1.0168,-1.0162,-1.0159,-1.0156,-1.0129,-1.0107,-1.0147,-1.011,-1.0137,-1.0138,-1.0148,-1.0148,-1.0241,-1.0146,-1.0146,-1.0146,-1.0146,0,-1.0285,-1.0301,-1.026,-1.0269,-1.0286,-1.0253,-1.0271,-1.0256,-1.0243,-1.0249,-1.0213,-1.022,-1.0183,-1.0186,-1.0165,-1.018,-1.0179,-1.017,-1.0164,-1.0173,-1.0175,-1.0173,-1.0169,-1.0148,-1.0148,-1.0147,-1.0147,0,-1.0364,-1.0337,-1.035,-1.0324,-1.0318,-1.0332,-1.031,-1.0317,-1.0299,-1.0307,-1.0307,-1.0277,-1.0279,-1.0252,-1.0248,-1.0233,-1.0259,-1.0246,-1.0265,-1.0261,-1.029,-1.0288,-1.0387,-1.0399,-1.0295,-1.0296,-1.0297,0,-1.0407,-1.0419,-1.0394,-1.0396,-1.0387,-1.039,-1.0388,-1.0356,-1.0356,-1.0341,-1.0351,-1.035,-1.0348,-1.0353,-1.0331,-1.0329,-1.0316,-1.0351,-1.0316,-1.0326,-1.0319,-1.0319,-1.0321,-1.0359,-1.036,-1.0361,-1.0362,0,-1.0487,-1.0474,-1.0473,-1.0468,-1.0467,-1.0461,-1.0453,-1.0457,-1.0422,-1.0424,-1.0426,-1.0424,-1.0421,-1.0421,-1.0415,-1.0404,-1.0378,-1.0373,-1.038,-1.039,-1.04,-1.0397,-1.0286,-1.0371,-1.037,-1.0369,-1.0369,-1.0369,-1.0551,-1.056,-1.0545,-1.0545,-1.0536,-1.053,-1.0537,-1.0519,-1.052,-1.0515,-1.0496,-1.0502,-1.0489,-1.0478,-1.047,-1.0475,-1.0458,-1.0467,-1.0469,-1.0472,-1.0479,-1.0399,-1.0473,-1.0473,-1.0473,-1.0473,-1.0472,0,-1.063,-1.0619,-1.062,-1.0611,-1.0612,-1.0587,-1.0577,-1.058,-1.0585,-1.0575,-1.0574,-1.0577,-1.0577,-1.0557,-1.0555,-1.0563,-1.0551,-1.0564,-1.0564,-1.0562,-1.0493,-1.0488,-1.0574,-1.0574,-1.0574,-1.0574,-1.0574,-1.0574,-1.0672,-1.0687,-1.0672,-1.0683,-1.0672,-1.0677,-1.0674,-1.0669,-1.0661,-1.0666,-1.0667,-1.0653,-1.064,-1.0637,-1.0637,-1.0631,-1.0633,-1.065,-1.0641,-1.0576,-1.0567,-1.0557,-1.0553,-1.0651,-1.0651,-1.0709,-1.071,-1.071]},{"header":{"parameterUnit":"m.s-1","parameterCategory":1,"la1":30.2991,"la2":30.254,"lo1":-89.0895,"lo2":-89.0444,"dy":0.0017,"dx":0.0017,"nx":28,"ny":28,"refTime":"2024-10-11T21:00:00:Z","depth":0,"parameterNumber":3,"parameterNumberName":"V-component_of_WINDS"},"data":[0,0,0,0,0,0,0,0,0,0,0,0,0,0,0,0,0,0,0,0,0,0,0,0,0,0,0,0,0,0,0,0,0,0,0,0,0,0,0,0,0,0,0,0,0,0,0,0,0,0,0,0,0,0,0,0,0,0,1.1287,1.1287,0,1.1231,1.1231,1.123,1.1203,1.1203,1.1203,1.1203,1.1143,1.1142,1.114,0,0,0,0,0,0,0,0,0,0,0,0,0,1.1367,1.1365,1.1287,1.1287,1.1286,1.1231,1.1231,1.123,1.1203,1.1203,1.1203,1.1203,1.1144,1.1142,1.114,0,0,0,0,0,0,0,0,0,0,0,0,0,1.1324,1.1365,1.1287,1.1266,1.1264,1.1232,1.1231,1.123,1.1203,1.1203,1.1203,1.1203,1.1144,1.1142,1.1139,1.1124,0,0,1.1132,1.1131,0,0,0,0,0,0,0,0,1.1326,1.1321,1.127,1.1267,1.1265,1.1224,1.1237,1.1194,1.1203,1.1226,1.1203,1.1203,1.117,1.1165,1.1155,1.1121,1.1118,1.1132,1.113,1.1129,1.1129,0,0,0,0,0,0,0,1.1329,1.1323,1.1265,1.1269,1.1266,1.1258,1.1252,1.1228,1.1198,1.1224,1.1222,1.1216,1.1168,1.1157,1.1153,1.1118,1.1132,1.113,1.1128,1.1127,1.1065,1.1065,0,0,0,0,0,0,1.1336,1.1326,1.1267,1.1263,1.1296,1.1256,1.125,1.1237,1.1199,1.1193,1.1216,1.1215,1.1161,1.1156,1.1151,1.1128,1.1129,1.1127,1.1126,1.1065,1.1065,1.1065,0,0,0,0,0,0,1.1338,1.1331,1.1269,1.1294,1.1285,1.1255,1.1241,1.1236,1.1225,1.1192,1.1187,1.121,1.1161,1.1154,1.113,1.1126,1.1126,1.1124,1.1065,1.1065,1.1065,1.1084,0,0,0,0,0,0,1.134,1.1332,1.1327,1.1294,1.1284,1.1251,1.1241,1.1235,1.1221,1.1219,1.1185,1.118,1.1161,1.1134,1.1128,1.1122,1.1122,1.1066,1.1065,1.1065,1.1083,1.1084,1.1085,0,0,0,0,0,1.1343,1.1334,1.1327,1.132,1.1277,1.1251,1.1245,1.1224,1.1221,1.1214,1.1193,1.1181,1.1127,1.1132,1.1125,1.1118,1.1066,1.1065,1.1065,1.1083,1.1084,1.1085,0,0,0,0,0,0,1.1367,1.133,1.1321,1.1302,1.128,1.1246,1.1238,1.1226,1.1204,1.1203,1.1176,1.1169,1.1147,1.113,1.1136,1.1099,1.1095,1.1093,1.1111,1.1112,1.1113,1.1117,1.112,0,0,0,0,0,1.137,1.1353,1.1321,1.1306,1.1296,1.1269,1.1256,1.1242,1.1218,1.1208,1.1185,1.1161,1.1139,1.1124,1.1102,1.1081,1.1072,1.1072,1.1073,1.1074,1.1072,1.1057,1.1056,1.1063,1.1063,1.1063,0,0,1.1376,1.1354,1.1344,1.1311,1.1292,1.1273,1.1261,1.1242,1.1227,1.1205,1.1181,1.1163,1.1134,1.1111,1.1099,1.1096,1.1068,1.1073,1.1074,1.1072,1.1057,1.1056,1.1055,1.1063,1.1063,1.1063,0,0,1.1377,1.1359,1.1345,1.1326,1.1298,1.1279,1.1276,1.1244,1.1231,1.1206,1.1188,1.117,1.1132,1.1112,1.1096,1.1087,1.1074,1.1081,1.1084,1.1069,1.1069,1.1068,1.1063,1.1062,1.1079,1.1079,1.1079,0,1.1388,1.136,1.1338,1.132,1.1304,1.1283,1.1267,1.1249,1.1215,1.1204,1.1202,1.1152,1.1132,1.1102,1.11,1.1089,1.1082,1.1084,1.1071,1.107,1.1069,1.1064,1.1062,1.108,1.108,1.108,1.108,0,1.1374,1.1354,1.1345,1.1313,1.1296,1.1279,1.1253,1.1239,1.1225,1.1207,1.118,1.1154,1.1125,1.1117,1.1104,1.1085,1.1084,1.1076,1.1071,1.107,1.1064,1.1062,1.1081,1.1081,1.1081,1.1081,0,0,1.1389,1.1344,1.1341,1.1324,1.1291,1.1275,1.1255,1.1227,1.1215,1.1191,1.1173,1.114,1.1133,1.1115,1.1099,1.1086,1.1078,1.108,1.1079,1.1079,1.1053,1.1058,1.1056,1.1069,1.1069,1.1069,1.1055,0,1.1384,1.135,1.1329,1.1302,1.1282,1.1261,1.1243,1.122,1.1201,1.1181,1.116,1.1137,1.1129,1.1118,1.1105,1.1082,1.1072,1.1083,1.105,1.1049,1.1057,1.1053,1.1059,1.1047,1.1053,1.1052,1.1052,0,1.1375,1.1352,1.1323,1.1289,1.128,1.1265,1.1237,1.1218,1.119,1.1177,1.1157,1.114,1.1116,1.1113,1.1079,1.1087,1.1072,1.1058,1.1057,1.1052,1.105,1.1047,1.1043,1.1041,1.1049,1.1049,1.1049,0,1.1387,1.1348,1.1326,1.1313,1.1274,1.1263,1.1246,1.1218,1.1202,1.1176,1.1165,1.1137,1.1121,1.1099,1.1074,1.1075,1.1042,1.1037,1.1029,1.1029,1.1022,1.1023,1.1014,1.1015,1.1015,1.1015,1.1015,0,1.1383,1.1366,1.133,1.1316,1.1296,1.127,1.125,1.1231,1.1206,1.1186,1.1166,1.1148,1.1117,1.1094,1.1074,1.1048,1.1041,1.1029,1.1023,1.103,1.1031,1.1019,1.1019,1.1014,1.1014,1.1014,1.1015,0,1.1393,1.1369,1.1342,1.1307,1.1298,1.1284,1.1252,1.1237,1.1217,1.1192,1.1185,1.1153,1.1125,1.1098,1.106,1.1047,1.102,1.1014,1.1029,1.1026,1.1018,1.1019,1.1001,1.0997,1.1001,1.1001,1.1001,0,1.1392,1.1378,1.1341,1.1327,1.131,1.1288,1.1271,1.1245,1.1228,1.1193,1.1181,1.1152,1.1127,1.1082,1.1055,1.1025,1.1017,1.1013,1.1013,1.1019,1.1015,1.1016,1.1013,1.1013,1.1013,1.1014,1.1014,0,1.1392,1.138,1.1357,1.1329,1.131,1.1286,1.1262,1.1251,1.122,1.1201,1.1173,1.1153,1.1114,1.1085,1.1051,1.1032,1.1017,1.1014,1.101,1.1016,1.1025,1.1018,1.1029,1.1014,1.1014,1.1014,1.1014,1.1014,1.1395,1.1381,1.1352,1.1327,1.1306,1.1283,1.1266,1.1243,1.1219,1.1186,1.1172,1.1142,1.1111,1.1065,1.1046,1.1021,1.1017,1.1012,1.1011,1.101,1.101,1.103,1.1015,1.1015,1.1015,1.1015,1.1015,0,1.1393,1.1373,1.135,1.1316,1.1295,1.1284,1.1256,1.1238,1.1213,1.1186,1.1162,1.1127,1.1098,1.1067,1.1035,1.1021,1.1013,1.1013,1.1013,1.1009,1.1016,1.1022,1.102,1.102,1.102,1.102,1.102,1.102,1.1389,1.1364,1.1348,1.1312,1.1291,1.1263,1.1247,1.1225,1.1204,1.1166,1.1142,1.1122,1.1093,1.1059,1.103,1.1021,1.101,1.1012,1.1001,1.1009,1.1008,1.1008,1.1013,1.101,1.101,1.0996,1.0996,1.0996]}]]